www.pogodaiklimat.ru

Погода и климат >> Архив погоды >> Ирак >> Karbalaa


ПОГОДА в Karbalaa

  • Прогноз погоды в Karbalaa
  • Монитор погоды в Karbalaa
  • Климат города

АРХИВ ПОГОДЫ в Karbalaa

Время (UTC), дата Ветер
(напр.,м/с)
 
Видим.   Явления Облачность Т
(С)
Тd
(С)
f
(%)
Тe
(С)
Тes
(С)
Комфортность P
(гПа)
Po
(гПа)
Тmin
(С)
Tmax
(С)
R
(мм)
R24
(мм)
S
(см)
09 11.08 Ю 3 10 км 3/3
[Cb calv]
+47.1 +14.5 15 +47 +59 опасность
перегрева
999.1 999.0
12 11.08 Ю 3 10 км 3/3
[Cb calv]
+47.1 +14.5 15 +47 +54 опасность
перегрева
999.1 999.0
15 11.08 СЗ 5 10 км 3/3 900 м
[Cu hum]
+47.0 +13.5 15 +47 +48 опасность
перегрева
997.6 998.0
21 11.08 штиль 0 10 км ясно +37.2 +13.6 25 +38 +38 душно 999.1 999.0
00 12.08 Ю 5 10 км ясно +35.0 +11.4 24 +35 +35 очень
жарко
998.7 999.0
03 12.08 СЗ 4 10 км ясно +33.6 +14.5 32 +35 +35 душно 999.0 999.0
06 12.08 С 3 10 км 1/1 900 м
[Cu hum]
+37.7 +17.1 30 +40 +49 очень
душно
1000.2 1000.0 +33.0
09 12.08 С 2 10 км 1/1 900 м
[Cu hum]
+47.0 +14.5 15 +47 +65 опасность
перегрева
999.5 1000.0
12 12.08 С 4 10 км 1/1 900 м
[Cu hum]
+49.0 +9.9 10 +47 +54 опасность
перегрева
998.3 998.0
18 12.08 штиль 0 10 км ясно +41.3 +12.8 19 +41 +41 опасность
перегрева
999.3 999.0 +49.8
00 13.08 штиль 0 10 км ясно +33.0 +15.6 35 +35 +35 душно 998.5 999.0
03 13.08 штиль 0 10 км ясно +32.0 +17.3 41
09 13.08 С 3 10 км ясно +46.0 +13.7 15 +46 +62 опасность
перегрева
1000.6 1001.0
12 13.08 З 2 10 км ясно +49.3 +13.8 13 +49 +61 опасность
перегрева
999.6 1000.0
15 13.08 штиль 0 10 км ясно +47.7 +15.3 16 +49 +50 опасность
перегрева
999.1 999.0
18 13.08 СЗ 2 10 км ясно +41.3 +14.1 20 +42 +42 опасность
перегрева
1000.0 1000.0 +49.8
21 13.08 С 3 10 км ясно +38.2 +13.3 23 +38 +38 очень
жарко
1001.0 1001.0
03 14.08 штиль 0 10 км ясно +33.2 +14.8 33 +35 +35 душно 1002.0 1002.0
06 14.08 штиль 0 10 км ясно +36.7 +16.5 30 +39 +53 опасность
солнечного
удара
1003.1 1003.0 +33.1
12 14.08 С 3 10 км ясно +46.8 +16.7 18 +49 +58 опасность
перегрева
1001.4 1001.0
18 14.08 штиль 0 10 км ясно +40.7 +17.9 27 +44 +44 опасность
перегрева
1002.3 1002.0 +47.3
03 15.08 штиль 0 10 км ясно +32.6 +14.8 34 +34 +35 очень
жарко
1002.5 1003.0
06 15.08 С 2 10 км ясно +37.0 +12.4 23 +37 +47 очень
жарко
1003.3 1003.0 +32.0
09 15.08 С 3 10 км ясно +44.1 +12.0 15 +43 +60 опасность
перегрева
1002.8 1003.0
12 15.08 СЗ 6 10 км ясно +46.0 +11.2 13 +45 +49 опасность
перегрева
1001.0 1001.0
15 15.08 СЗ 3 10 км ясно +44.0 +15.0 19 +45 +45 опасность
перегрева
1000.4 1000.0
18 15.08 штиль 0 10 км ясно +40.6 +16.7 25 +43 +43 опасность
перегрева
1001.2 1001.0 +46.2
21 15.08 штиль 0 10 км ясно +36.6 +18.4 34 +40 +40 очень
душно
1001.9 1002.0
00 16.08 штиль 0 10 км ясно +34.5 +18.1 38 +39 +39 очень
душно
1000.5 1001.0
06 16.08 В 2 10 км 5/5 900 м
[Cu med, cong]
+38.0 +15.8 27 +40 +45 очень
душно
1002.6 1003.0 +33.0
09 16.08 штиль 0 10 км ясно +43.5 +17.7 23 +46 +73 опасность
перегрева
1002.3 1002.0
12 16.08 штиль 0 10 км 5/5 900 м
[Cu hum]
+45.7 +16.5 19 +48 +55 опасность
перегрева
1000.3 1000.0
18 16.08 В 2 10 км 1/1 900 м
[Cu hum]
+39.7 +15.9 25 +41 +41 опасность
перегрева
999.1 999.0 +47.2
21 16.08 штиль 0 10 км 3/3 900 м
[Cu hum]
+38.0 +15.6 27 +40 +40 очень
душно
999.6 1000.0
09 17.08 штиль 0 10 км ясно +46.5 +15.7 17 +48 +74 опасность
перегрева
1000.7 1001.0
12 17.08 штиль 0 10 км ясно +47.1 +15.5 16 +48 +63 опасность
перегрева
999.7 1000.0
15 17.08 штиль 0 10 км ясно +45.5 +15.1 17 +46 +47 опасность
перегрева
999.7 1000.0
18 17.08 штиль 0 10 км ясно +41.5 +12.9 19 +41 +41 опасность
перегрева
1001.2 1001.0 +47.6
21 17.08 штиль 0 10 км 1/1 900 м
[Cu hum]
+39.0 +11.8 20 +38 +38 очень
жарко
1001.5 1002.0
03 18.08 штиль 0 10 км 1/1 840 м
[Cu hum]
+33.2 +14.8 33 +35 +35 душно 1002.8 1003.0
06 18.08 штиль 0 10 км ясно +37.0 +15.6 28 +39 +53 опасность
солнечного
удара
1004.3 1004.0 +33.1

 

Местоположение метеостанции Karbalaa (Ирак): широта 32.62 долгота 44.02 высота над уровнем моря 29 м.

В архиве по умолчанию представлена погода в Karbalaa за последнюю неделю. Архивные данные за месяц целиком и за предыдущие месяцы, начиная с января 2011 года, Вы можете получить, выбрав интересующий диапазон дат из раскрывающегося списка и нажав кнопку "Ввод!".

Внимание! Время в таблицах - всемирное. Для получения местного времени необходимо прибавить поправку, которая в Karbalaa равна 3 ч.

Смотрите также архив погоды в соседних городах и на ближайших метеорологических станциях:

Погода в Hella (Ирак) (45 км)
Погода в Baghdad (Ирак) (71 км)
Погода в Najaf (Ирак) (77 км)
Погода в Azizyah (Ирак) (104 км)
Погода в Ramadi (Ирак) (113 км)
Погода в Diwaniya (Ирак) (115 км)
Погода в Heet (Ирак) (115 км)
Погода в Ayn Al-Tamar (Ирак) (122 км)
Погода в Al-Khalis (Ирак) (143 км)
Погода в Ubaydah Bin Al Jarrah (Ирак) (163 км)

Пояснения к столбцам:

Ветер - указаны скорость ветра в м/с - средняя за 10 мин, порывы в срок и между сроками (в фигурных скобках) и направление, откуда дует ветер: С - северный, СВ - северо-восточный, В - восточный, ЮВ - юго-восточный, Ю - южный, ЮЗ - юго-западный, З - западный, СЗ - северо-западный.
Видимость - горизонтальная дальность видимости в метрах или километрах. При видимости от 1 до 10 км при отсутствии осадков обычно наблюдается дымка, при ухудшении видимости до 1 км и менее - туман. В сухую погоду видимость может ухудшаться дымом, пылью или мглою.
Явления - указаны атмосферные явления, наблюдавшиеся в срок или в последний час перед сроком; фигурными скобками обозначены явления, наблюдавшиеся между сроками (за 1-3 часа до срока); квадратными скобками обозначены град или гололедные отложения с указанием их диаметра в мм.
Облачность - указаны через наклонную черту общая и нижняя облачность в баллах и высота нижней границы облаков в метрах; квадратными скобками обозначены формы облаков: Ci - перистые, Cs - перисто-слоистые, Cc - перисто-кучевые, Ac - высококучевые, As - высокослоистые, Sc - слоисто-кучевые, Ns - слоисто-дождевые, Cu - кучевые, Cb - кучево-дождевые. Подробнее классификацию облаков см. в Атласе облаков (PDF).
T - Температура воздуха - температура, измеренная на высоте 2 м над землей.
Td - Температура точки росы - температура, при понижении до которой содержащийся в воздухе водяной пар достигнет насыщения.
f - Относительная влажность воздуха - влажноcть воздуха, измеренная на высоте 2 м над землей.
Te - Эффективная температура - температура, которую ощущает одетый по сезону человек в тени. Характеристика душности погоды. При расчете учитывается влияние влажности воздуха и скорости ветра на теплоощущения человека.
Tes - Эффективная температура на солнце - температура, которую ощущает человек, с поправкой на солнечный нагрев. Характеристика знойности погоды. Зависит от высоты солнца над горизонтом, облачности и скорости ветра. Ночью, в пасмурную погоду, а также при ветре 12 м/с и более поправка равна нулю.
P - Атмосферное давление - приведенное к уровню моря атмосферное давление.
Po - Атмосферное давление - измеренное на уровне метеостанции атмосферное давление.
Tmin - Минимальная температура - минимум температуры воздуха на высоте 2 м над землей.
Tmax - Максимальная температура - максимум температуры воздуха на высоте 2 м над землей.
R - Количество осадков - Количество выпавших осадков за период времени, мм. При наведении курсора мыши на число - период времени, за который выпало указанное количество осадков.
R24 - Количество осадков - Количество выпавших осадков за 24 часа, мм.
S - Снежный покров - Высота снежного покрова, см. При наведении курсора мыши на число - состояние снежного покрова и степень покрытия местности в баллах.